| time (UTC) | temp F | wind direction | speed MPH | gust MPH | rain 1hr in | rain 24hr in | rain mn in | humidity % | barometer mb |
| 20260506163510 | 61 | 317 | 0.0 | 0.0 | 0.00 | 0.00 | 0.00 | 55 | |
| 20260506162509 | 61 | 317 | 0.0 | 2.0 | 0.00 | 0.00 | 0.00 | 55 | |
| 20260506162017 | 63 | 317 | 0.0 | 2.0 | 0.00 | 0.00 | 0.00 | 54 | |
| 20260506161511 | 63 | 317 | 0.0 | 0.0 | 0.00 | 0.00 | 0.00 | 54 | |
| 20260506161009 | 63 | 317 | 0.0 | 2.0 | 0.00 | 0.00 | 0.00 | 54 | |
| 20260506160510 | 63 | 317 | 2.0 | 2.0 | 0.00 | 0.00 | 0.00 | 53 | |
| 20260506160011 | 64 | 317 | 0.0 | 2.0 | 0.00 | 0.00 | 0.00 | 53 | |
| 20260506155511 | 64 | 317 | 2.0 | 2.0 | 0.00 | 0.00 | 0.00 | 53 | |
| 20260506154510 | 63 | 317 | 2.0 | 2.0 | 0.00 | 0.00 | 0.00 | 52 | |
| 20260506153518 | 64 | 296 | 0.0 | 2.0 | 0.00 | 0.00 | 0.00 | 52 | |
| 20260506153010 | 66 | 296 | 0.0 | 2.0 | 0.00 | 0.00 | 0.00 | 51 | |
| 20260506152510 | 66 | 298 | 0.0 | 0.0 | 0.00 | 0.00 | 0.00 | 52 | |
| 20260506152011 | 64 | 298 | 2.0 | 2.0 | 0.00 | 0.00 | 0.00 | 52 | |
| 20260506151511 | 64 | 298 | 2.0 | 4.0 | 0.00 | 0.00 | 0.00 | 52 | |
| 20260506151010 | 66 | 305 | 2.0 | 2.0 | 0.00 | 0.00 | 0.00 | 51 | |
| 20260506150511 | 66 | 277 | 0.0 | 2.0 | 0.00 | 0.00 | 0.00 | 51 | |
| 20260506150010 | 66 | 271 | 2.0 | 2.0 | 0.00 | 0.00 | 0.00 | 50 | |
| 20260506145511 | 66 | 184 | 2.0 | 2.0 | 0.00 | 0.00 | 0.00 | 50 | |
| 20260506145010 | 66 | 214 | 2.0 | 2.0 | 0.00 | 0.00 | 0.00 | 49 | |
| 20260506144511 | 66 | 187 | 0.0 | 2.0 | 0.00 | 0.00 | 0.00 | 49 | |
| 20260506144018 | 70 | 167 | 2.0 | 4.0 | 0.00 | 0.00 | 0.00 | 49 | |
| 20260506143511 | 70 | 12 | 2.0 | 9.0 | 0.00 | 0.00 | 0.00 | 50 | |
| 20260506143011 | 68 | 180 | 0.0 | 0.0 | 0.00 | 0.00 | 0.00 | 51 | |
| 20260506142511 | 68 | 19 | 0.0 | 2.0 | 0.00 | 0.00 | 0.00 | 53 | |
| 20260506142012 | 64 | 358 | 2.0 | 4.0 | 0.00 | 0.00 | 0.00 | 53 | |
| 20260506141510 | 64 | 316 | 0.0 | 2.0 | 0.00 | 0.00 | 0.00 | 53 | |
| 20260506141009 | 64 | 296 | 2.0 | 2.0 | 0.00 | 0.00 | 0.00 | 53 | |
| 20260506140511 | 64 | 241 | 0.0 | 2.0 | 0.00 | 0.00 | 0.00 | 53 | |
| 20260506140011 | 64 | 144 | 0.0 | 4.0 | 0.00 | 0.00 | 0.00 | 53 | |
| 20260506135511 | 64 | 124 | 2.0 | 4.0 | 0.00 | 0.00 | 0.00 | 52 | |
| 20260506135011 | 63 | 131 | 2.0 | 2.0 | 0.00 | 0.00 | 0.00 | 54 | |
| 20260506133511 | 64 | 128 | 4.0 | 4.0 | 0.00 | 0.00 | 0.00 | 53 | |
| 20260506133010 | 64 | 131 | 4.0 | 4.0 | 0.00 | 0.00 | 0.00 | 53 | |
| 20260506132510 | 66 | 134 | 0.0 | 4.0 | 0.00 | 0.00 | 0.00 | 53 | |
| 20260506132012 | 66 | 300 | 0.0 | 2.0 | 0.00 | 0.00 | 0.00 | 54 | |
| 20260506131510 | 66 | 148 | 2.0 | 4.0 | 0.00 | 0.00 | 0.00 | 52 | |
| 20260506131010 | 68 | 225 | 4.0 | 4.0 | 0.00 | 0.00 | 0.00 | 55 | |
| 20260506130517 | 66 | 203 | 4.0 | 7.0 | 0.00 | 0.00 | 0.00 | 56 | |
| 20260506130011 | 64 | 255 | 2.0 | 4.0 | 0.00 | 0.00 | 0.00 | 57 | |
| 20260506125511 | 63 | 270 | 7.0 | 9.0 | 0.00 | 0.00 | 0.00 | 58 | |
| 20260506125010 | 63 | 272 | 7.0 | 11.0 | 0.00 | 0.00 | 0.00 | 58 | |
| 20260506124511 | 63 | 252 | 11.0 | 13.0 | 0.00 | 0.00 | 0.00 | 58 | |
| 20260506124011 | 61 | 272 | 9.0 | 11.0 | 0.00 | 0.00 | 0.00 | 59 | |
| 20260506123511 | 63 | 290 | 9.0 | 13.0 | 0.00 | 0.00 | 0.00 | 60 | |
| 20260506123010 | 63 | 279 | 16.0 | 18.0 | 0.00 | 0.00 | 0.00 | 59 | |
| 20260506122510 | 63 | 305 | 4.0 | 7.0 | 0.00 | 0.00 | 0.00 | 61 | |
| 20260506122012 | 61 | 287 | 13.0 | 16.0 | 0.00 | 0.00 | 0.00 | 59 | |
| 20260506121510 | 63 | 274 | 11.0 | 13.0 | 0.00 | 0.00 | 0.00 | 60 | |
| 20260506121010 | 63 | 285 | 7.0 | 9.0 | 0.00 | 0.00 | 0.00 | 60 | |
| 20260506120511 | 61 | 238 | 9.0 | 11.0 | 0.00 | 0.00 | 0.00 | 61 | |
| 20260506120010 | 61 | 267 | 11.0 | 13.0 | 0.00 | 0.00 | 0.00 | 60 | |
| 20260506115510 | 61 | 273 | 13.0 | 16.0 | 0.00 | 0.00 | 0.00 | 60 | |
| 20260506115011 | 61 | 280 | 11.0 | 11.0 | 0.00 | 0.00 | 0.00 | 61 | |
| 20260506114510 | 61 | 264 | 11.0 | 13.0 | 0.00 | 0.00 | 0.00 | 61 | |
| 20260506114009 | 61 | 257 | 11.0 | 13.0 | 0.00 | 0.00 | 0.00 | 61 | |
| 20260506113510 | 61 | 237 | 11.0 | 13.0 | 0.00 | 0.00 | 0.00 | 61 | |
| 20260506113011 | 61 | 265 | 7.0 | 9.0 | 0.00 | 0.00 | 0.00 | 62 | |
| 20260506112510 | 59 | 259 | 16.0 | 20.0 | 0.00 | 0.00 | 0.00 | 61 | |
| 20260506112013 | 61 | 249 | 11.0 | 13.0 | 0.00 | 0.00 | 0.00 | 62 | |
| 20260506111511 | 61 | 242 | 13.0 | 16.0 | 0.00 | 0.00 | 0.00 | 62 | |
| 20260506111011 | 61 | 270 | 20.0 | 22.0 | 0.00 | 0.00 | 0.00 | 62 | |
| 20260506110510 | 59 | 269 | 16.0 | 20.0 | 0.00 | 0.00 | 0.00 | 62 | |
| 20260506110010 | 59 | 237 | 16.0 | 18.0 | 0.00 | 0.00 | 0.00 | 63 | |
| 20260506105511 | 59 | 241 | 13.0 | 16.0 | 0.00 | 0.00 | 0.00 | 63 | |
| 20260506105011 | 61 | 230 | 11.0 | 20.0 | 0.00 | 0.00 | 0.00 | 63 | |
| 20260506104512 | 59 | 249 | 16.0 | 18.0 | 0.00 | 0.00 | 0.00 | 63 | |
| 20260506104010 | 59 | 233 | 13.0 | 16.0 | 0.00 | 0.00 | 0.00 | 64 | |
| 20260506103510 | 59 | 236 | 16.0 | 20.0 | 0.00 | 0.00 | 0.00 | 64 | |
| 20260506103011 | 59 | 239 | 18.0 | 20.0 | 0.00 | 0.00 | 0.00 | 65 | |
| 20260506102510 | 59 | 247 | 18.0 | 20.0 | 0.00 | 0.00 | 0.00 | 65 | |
| 20260506102010 | 59 | 239 | 13.0 | 16.0 | 0.00 | 0.00 | 0.00 | 65 | |
| 20260506101510 | 59 | 243 | 20.0 | 20.0 | 0.00 | 0.00 | 0.00 | 65 | |
| 20260506101010 | 57 | 264 | 18.0 | 22.0 | 0.00 | 0.00 | 0.00 | 65 | |
| 20260506100510 | 59 | 256 | 18.0 | 20.0 | 0.00 | 0.00 | 0.00 | 65 | |
| 20260506100010 | 59 | 240 | 18.0 | 18.0 | 0.00 | 0.00 | 0.00 | 65 | |
| 20260506095511 | 59 | 248 | 16.0 | 20.0 | 0.00 | 0.00 | 0.00 | 66 | |
| 20260506095011 | 59 | 263 | 18.0 | 20.0 | 0.00 | 0.00 | 0.00 | 65 | |
| 20260506094511 | 59 | 233 | 16.0 | 20.0 | 0.00 | 0.00 | 0.00 | 64 | |
| 20260506094011 | 59 | 241 | 20.0 | 25.0 | 0.00 | 0.00 | 0.00 | 64 | |
| 20260506093511 | 59 | 226 | 18.0 | 22.0 | 0.00 | 0.00 | 0.00 | 65 | |
| 20260506093011 | 59 | 242 | 20.0 | 25.0 | 0.00 | 0.00 | 0.00 | 66 | |
| 20260506092515 | 57 | 266 | 18.0 | 22.0 | 0.00 | 0.00 | 0.00 | 66 | |
| 20260506092014 | 59 | 238 | 20.0 | 27.0 | 0.00 | 0.00 | 0.00 | 66 | |
| 20260506091510 | 57 | 252 | 16.0 | 22.0 | 0.00 | 0.00 | 0.00 | 67 | |
| 20260506091010 | 57 | 256 | 20.0 | 25.0 | 0.00 | 0.00 | 0.00 | 67 | |
| 20260506090511 | 57 | 253 | 13.0 | 20.0 | 0.00 | 0.00 | 0.00 | 68 | |
| 20260506090010 | 57 | 252 | 18.0 | 22.0 | 0.00 | 0.00 | 0.00 | 68 | |
| 20260506085511 | 57 | 228 | 20.0 | 25.0 | 0.00 | 0.00 | 0.00 | 69 | |
| 20260506085010 | 57 | 258 | 22.0 | 25.0 | 0.00 | 0.00 | 0.00 | 68 | |
| 20260506084510 | 57 | 249 | 25.0 | 27.0 | 0.00 | 0.00 | 0.00 | 70 | |
| 20260506084010 | 57 | 261 | 25.0 | 29.0 | 0.00 | 0.00 | 0.00 | 72 | |
| 20260506083509 | 57 | 242 | 25.0 | 27.0 | 0.00 | 0.00 | 0.00 | 73 | |
| 20260506083011 | 57 | 231 | 18.0 | 22.0 | 0.00 | 0.00 | 0.00 | 74 | |
| 20260506082511 | 55 | 242 | 22.0 | 25.0 | 0.00 | 0.00 | 0.00 | 74 | |
| 20260506082012 | 57 | 216 | 16.0 | 20.0 | 0.00 | 0.00 | 0.00 | 74 | |
| 20260506081510 | 57 | 217 | 16.0 | 20.0 | 0.00 | 0.00 | 0.00 | 75 | |
| 20260506081012 | 57 | 248 | 18.0 | 22.0 | 0.00 | 0.00 | 0.00 | 76 | |
| 20260506080517 | 55 | 252 | 20.0 | 25.0 | 0.00 | 0.00 | 0.00 | 76 | |
| 20260506073510 | 55 | 228 | 18.0 | 22.0 | 0.00 | 0.00 | 0.00 | 81 | |
| 20260506073010 | 55 | 238 | 18.0 | 22.0 | 0.00 | 0.00 | 0.00 | 82 | |
| 20260506072511 | 55 | 235 | 18.0 | 22.0 | 0.00 | 0.00 | 0.00 | 83 | |
| 20260506072013 | 54 | 242 | 16.0 | 20.0 | 0.00 | 0.00 | 0.00 | 84 | |
| 20260506071510 | 54 | 233 | 20.0 | 22.0 | 0.00 | 0.00 | 0.00 | 85 | |
| 20260506071010 | 54 | 241 | 16.0 | 20.0 | 0.00 | 0.00 | 0.00 | 85 | |
| 20260506070511 | 54 | 242 | 18.0 | 20.0 | 0.00 | 0.00 | 0.00 | 85 | |
| 20260506062511 | 52 | 247 | 16.0 | 18.0 | 0.00 | 0.00 | 0.00 | 87 | |
| 20260506062014 | 52 | 243 | 13.0 | 16.0 | 0.00 | 0.00 | 0.00 | 87 | |
| 20260506061511 | 52 | 233 | 16.0 | 20.0 | 0.00 | 0.00 | 0.00 | 87 | |
| 20260506061010 | 52 | 235 | 18.0 | 20.0 | 0.00 | 0.00 | 0.00 | 87 | |
| 20260506060510 | 52 | 220 | 18.0 | 20.0 | 0.00 | 0.00 | 0.00 | 87 | |
| 20260506051011 | 50 | 217 | 18.0 | 20.0 | 0.00 | 0.00 | 0.00 | 88 | |
| 20260506050511 | 50 | 212 | 20.0 | 22.0 | 0.00 | 0.00 | 0.00 | 88 | |
| 20260506045011 | 50 | 190 | 20.0 | 25.0 | 0.00 | 0.00 | 0.00 | 89 | |
| 20260506044510 | 50 | 194 | 18.0 | 22.0 | 0.00 | 0.00 | 0.00 | 89 | |
| 20260506044010 | 50 | 192 | 20.0 | 27.0 | 0.00 | 0.00 | 0.00 | 90 | |
| 20260506043510 | 50 | 201 | 20.0 | 25.0 | 0.00 | 0.00 | 0.00 | 89 | |
| 20260506043009 | 50 | 211 | 20.0 | 22.0 | 0.00 | 0.00 | 0.00 | 90 | |
| 20260506042510 | 50 | 207 | 20.0 | 25.0 | 0.00 | 0.00 | 0.00 | 90 | |
| 20260506042016 | 50 | 208 | 20.0 | 22.0 | 0.00 | 0.00 | 0.00 | 90 | |
| 20260506041511 | 50 | 215 | 18.0 | 18.0 | 0.00 | 0.00 | 0.00 | 90 | |
| 20260506041011 | 50 | 211 | 18.0 | 20.0 | 0.00 | 0.00 | 0.00 | 90 | |
| 20260506040510 | 50 | 216 | 16.0 | 20.0 | 0.00 | 0.00 | 0.00 | 91 | |
| 20260506040010 | 50 | 214 | 20.0 | 20.0 | 0.00 | 0.00 | 0.00 | 91 | |
| 20260506035511 | 50 | 217 | 18.0 | 20.0 | 0.00 | 0.00 | 0.00 | 91 | |
| 20260506035010 | 48 | 213 | 18.0 | 20.0 | 0.00 | 0.00 | 0.00 | 91 | |
| 20260506034511 | 48 | 220 | 18.0 | 20.0 | 0.00 | 0.00 | 0.00 | 91 | |
| 20260506034011 | 48 | 226 | 18.0 | 20.0 | 0.00 | 0.00 | 0.00 | 91 | |
| 20260506033511 | 48 | 224 | 18.0 | 20.0 | 0.00 | 0.00 | 0.00 | 91 | |
| 20260506033010 | 50 | 217 | 22.0 | 22.0 | 0.00 | 0.00 | 0.00 | 91 | |
| 20260506032510 | 50 | 212 | 22.0 | 25.0 | 0.00 | 0.00 | 0.00 | 92 | |
| 20260506032015 | 50 | 211 | 20.0 | 22.0 | 0.00 | 0.00 | 0.00 | 92 | |
| 20260506031511 | 50 | 209 | 20.0 | 22.0 | 0.00 | 0.00 | 0.00 | 92 | |
| 20260506031010 | 50 | 206 | 20.0 | 20.0 | 0.00 | 0.00 | 0.00 | 92 | |
| 20260506030511 | 48 | 212 | 16.0 | 18.0 | 0.00 | 0.00 | 0.00 | 92 | |
| 20260506030011 | 48 | 216 | 13.0 | 16.0 | 0.00 | 0.00 | 0.00 | 92 | |
| 20260506025510 | 48 | 216 | 16.0 | 18.0 | 0.00 | 0.00 | 0.00 | 91 | |
| 20260506025010 | 48 | 227 | 13.0 | 13.0 | 0.00 | 0.00 | 0.00 | 91 | |
| 20260506024512 | 48 | 236 | 13.0 | 16.0 | 0.00 | 0.00 | 0.00 | 91 | |
| 20260506024010 | 48 | 241 | 13.0 | 16.0 | 0.00 | 0.00 | 0.00 | 91 | |
| 20260506023511 | 48 | 240 | 16.0 | 20.0 | 0.00 | 0.00 | 0.00 | 91 | |
| 20260506023011 | 50 | 248 | 13.0 | 16.0 | 0.00 | 0.00 | 0.00 | 91 | |
| 20260506022510 | 50 | 259 | 16.0 | 20.0 | 0.00 | 0.00 | 0.00 | 91 | |
| 20260506022013 | 48 | 245 | 13.0 | 13.0 | 0.00 | 0.00 | 0.00 | 91 | |
| 20260506021511 | 48 | 242 | 9.0 | 11.0 | 0.00 | 0.00 | 0.00 | 92 | |
| 20260506021011 | 50 | 236 | 11.0 | 11.0 | 0.00 | 0.00 | 0.00 | 92 | |
| 20260506020510 | 50 | 255 | 11.0 | 11.0 | 0.00 | 0.00 | 0.00 | 92 | |
| 20260506020010 | 48 | 245 | 11.0 | 13.0 | 0.00 | 0.00 | 0.00 | 92 | |
| 20260506015509 | 48 | 232 | 13.0 | 13.0 | 0.00 | 0.00 | 0.00 | 91 | |
| 20260506015018 | 48 | 234 | 13.0 | 16.0 | 0.00 | 0.00 | 0.00 | 91 | |
| 20260506014511 | 48 | 247 | 16.0 | 16.0 | 0.00 | 0.00 | 0.00 | 91 | |
| 20260506014010 | 48 | 229 | 13.0 | 16.0 | 0.00 | 0.00 | 0.00 | 91 | |
| 20260506013511 | 48 | 219 | 13.0 | 13.0 | 0.00 | 0.00 | 0.00 | 91 | |
| 20260506013011 | 48 | 224 | 13.0 | 13.0 | 0.00 | 0.00 | 0.00 | 91 | |
| 20260506012509 | 48 | 243 | 13.0 | 16.0 | 0.00 | 0.00 | 0.00 | 90 | |
| 20260506012010 | 48 | 239 | 16.0 | 16.0 | 0.00 | 0.00 | 0.00 | 90 | |
| 20260506011510 | 48 | 241 | 16.0 | 18.0 | 0.00 | 0.00 | 0.00 | 90 | |
| 20260506011010 | 48 | 244 | 18.0 | 18.0 | 0.00 | 0.00 | 0.00 | 90 | |
| 20260506010510 | 50 | 251 | 16.0 | 18.0 | 0.00 | 0.00 | 0.00 | 90 | |
| 20260506010010 | 50 | 238 | 13.0 | 16.0 | 0.00 | 0.00 | 0.00 | 90 | |
| 20260506005510 | 50 | 237 | 16.0 | 16.0 | 0.00 | 0.00 | 0.00 | 90 | |
| 20260506005010 | 50 | 238 | 16.0 | 16.0 | 0.00 | 0.00 | 0.00 | 90 | |
| 20260506004511 | 50 | 243 | 16.0 | 16.0 | 0.00 | 0.00 | 0.00 | 89 | |
| 20260506004010 | 50 | 247 | 16.0 | 16.0 | 0.00 | 0.00 | 0.00 | 89 | |
| 20260506003510 | 50 | 243 | 13.0 | 16.0 | 0.00 | 0.00 | 0.00 | 89 | |
| 20260506003011 | 50 | 239 | 16.0 | 16.0 | 0.00 | 0.00 | 0.00 | 89 | |
| 20260506002509 | 50 | 232 | 13.0 | 16.0 | 0.00 | 0.00 | 0.00 | 88 | |
| 20260506002011 | 50 | 229 | 16.0 | 18.0 | 0.00 | 0.00 | 0.00 | 88 | |
| 20260506001510 | 50 | 235 | 13.0 | 13.0 | 0.00 | 0.00 | 0.00 | 88 | |
| 20260506001010 | 50 | 245 | 11.0 | 11.0 | 0.00 | 0.00 | 0.00 | 87 | |
| 20260506000511 | 50 | 238 | 11.0 | 11.0 | 0.00 | 0.00 | 0.00 | 87 | |
| 20260505235510 | 50 | 233 | 11.0 | 11.0 | 0.00 | 0.00 | 0.00 | 86 | |
| 20260505235010 | 50 | 239 | 11.0 | 11.0 | 0.00 | 0.00 | 0.00 | 85 | |
| 20260505234510 | 50 | 242 | 9.0 | 9.0 | 0.00 | 0.00 | 0.00 | 84 | |
| 20260505234011 | 50 | 255 | 7.0 | 9.0 | 0.00 | 0.00 | 0.00 | 84 | |
| 20260505233510 | 52 | 273 | 7.0 | 7.0 | 0.00 | 0.00 | 0.00 | 83 | |
| 20260505233011 | 52 | 279 | 9.0 | 9.0 | 0.00 | 0.00 | 0.00 | 84 | |
| 20260505231010 | 52 | 279 | 7.0 | 7.0 | 0.00 | 0.00 | 0.00 | 84 | |
| 20260505230511 | 52 | 288 | 4.0 | 7.0 | 0.00 | 0.00 | 0.00 | 85 | |
| 20260505230010 | 52 | 291 | 4.0 | 7.0 | 0.00 | 0.00 | 0.00 | 85 | |
| 20260505225509 | 52 | 297 | 4.0 | 4.0 | 0.00 | 0.00 | 0.00 | 85 | |
| 20260505225010 | 52 | 294 | 7.0 | 7.0 | 0.00 | 0.00 | 0.00 | 86 | |
| 20260505224510 | 50 | 165 | 0.0 | 0.0 | 0.00 | 0.00 | 0.00 | 85 | |
| 20260505224018 | 52 | 311 | 2.0 | 2.0 | 0.00 | 0.00 | 0.00 | 85 | |
| 20260505223510 | 52 | 311 | 2.0 | 2.0 | 0.00 | 0.00 | 0.00 | 86 | |
| 20260505223011 | 52 | 311 | 4.0 | 7.0 | 0.00 | 0.00 | 0.00 | 87 | |
| 20260505222510 | 52 | 312 | 7.0 | 9.0 | 0.00 | 0.00 | 0.00 | 87 | |
| 20260505222013 | 52 | 307 | 9.0 | 9.0 | 0.00 | 0.00 | 0.00 | 88 | |
| 20260505221511 | 52 | 329 | 11.0 | 13.0 | 0.00 | 0.00 | 0.00 | 89 | |
| 20260505221010 | 50 | 324 | 11.0 | 13.0 | 0.00 | 0.00 | 0.00 | 89 | |
| 20260505220510 | 50 | 309 | 9.0 | 11.0 | 0.00 | 0.00 | 0.00 | 89 | |
| 20260505220010 | 50 | 325 | 13.0 | 16.0 | 0.00 | 0.00 | 0.00 | 89 | |
| 20260505215510 | 50 | 322 | 13.0 | 16.0 | 0.00 | 0.00 | 0.00 | 89 | |
| 20260505215015 | 50 | 314 | 13.0 | 13.0 | 0.00 | 0.00 | 0.00 | 89 | |
| 20260505214510 | 50 | 295 | 11.0 | 11.0 | 0.00 | 0.00 | 0.00 | 88 | |
| 20260505214010 | 50 | 296 | 11.0 | 13.0 | 0.00 | 0.00 | 0.00 | 88 | |
| 20260505213510 | 50 | 290 | 16.0 | 18.0 | 0.00 | 0.00 | 0.00 | 88 | |
| 20260505213010 | 50 | 286 | 18.0 | 18.0 | 0.00 | 0.00 | 0.00 | 88 | |
| 20260505212511 | 50 | 286 | 16.0 | 20.0 | 0.00 | 0.00 | 0.00 | 88 | |
| 20260505212011 | 50 | 285 | 16.0 | 18.0 | 0.00 | 0.00 | 0.00 | 88 | |
| 20260505211511 | 50 | 288 | 18.0 | 20.0 | 0.00 | 0.00 | 0.00 | 88 | |
| 20260505211010 | 50 | 280 | 25.0 | 27.0 | 0.00 | 0.00 | 0.00 | 88 | |
| 20260505210510 | 50 | 280 | 22.0 | 25.0 | 0.00 | 0.00 | 0.00 | 88 | |
| 20260505210010 | 50 | 275 | 22.0 | 25.0 | 0.00 | 0.00 | 0.00 | 87 | |
| 20260505205510 | 50 | 284 | 22.0 | 25.0 | 0.00 | 0.00 | 0.00 | 87 | |
| 20260505205009 | 50 | 279 | 18.0 | 20.0 | 0.00 | 0.00 | 0.00 | 85 | |
| 20260505204511 | 50 | 299 | 13.0 | 16.0 | 0.00 | 0.00 | 0.00 | 86 | |
| 20260505204010 | 50 | 268 | 20.0 | 25.0 | 0.00 | 0.00 | 0.00 | 85 | |
| 20260505203517 | 50 | 276 | 18.0 | 25.0 | 0.00 | 0.00 | 0.00 | 85 | |
| 20260505203011 | 50 | 280 | 29.0 | 34.0 | 0.00 | 0.00 | 0.00 | 84 | |
| 20260505202511 | 50 | 274 | 34.0 | 38.0 | 0.00 | 0.00 | 0.00 | 83 | |
| 20260505202019 | 50 | 273 | 40.0 | 45.0 | 0.00 | 0.00 | 0.00 | 81 | |
| 20260505201510 | 52 | 278 | 40.0 | 47.0 | 0.00 | 0.00 | 0.00 | 79 | |
| 20260505201010 | 57 | 277 | 22.0 | 25.0 | 0.00 | 0.00 | 0.00 | 73 | |
| 20260505200511 | 59 | 325 | 4.0 | 7.0 | 0.00 | 0.00 | 0.00 | 70 | |
| 20260505200011 | 59 | 17 | 7.0 | 9.0 | 0.00 | 0.00 | 0.00 | 70 | |
| 20260505195509 | 59 | 42 | 11.0 | 11.0 | 0.00 | 0.00 | 0.00 | 70 | |
| 20260505195010 | 59 | 53 | 11.0 | 13.0 | 0.00 | 0.00 | 0.00 | 70 | |
| 20260505194511 | 59 | 56 | 11.0 | 16.0 | 0.00 | 0.00 | 0.00 | 70 | |
| 20260505194010 | 59 | 58 | 13.0 | 16.0 | 0.00 | 0.00 | 0.00 | 69 | |
| 20260505193511 | 59 | 54 | 16.0 | 16.0 | 0.00 | 0.00 | 0.00 | 69 | |
| 20260505193011 | 59 | 58 | 18.0 | 22.0 | 0.00 | 0.00 | 0.00 | 68 | |
| 20260505192510 | 59 | 59 | 18.0 | 22.0 | 0.00 | 0.00 | 0.00 | 68 | |
| 20260505192013 | 61 | 52 | 20.0 | 22.0 | 0.00 | 0.00 | 0.00 | 67 | |
| 20260505191511 | 61 | 54 | 20.0 | 22.0 | 0.00 | 0.00 | 0.00 | 67 | |
| 20260505191010 | 61 | 47 | 20.0 | 25.0 | 0.00 | 0.00 | 0.00 | 66 | |
| 20260505190510 | 61 | 47 | 20.0 | 22.0 | 0.00 | 0.00 | 0.00 | 66 | |
| 20260505190011 | 61 | 50 | 20.0 | 25.0 | 0.00 | 0.00 | 0.00 | 66 | |
| 20260505185511 | 61 | 56 | 18.0 | 20.0 | 0.00 | 0.00 | 0.00 | 66 | |
| 20260505185011 | 61 | 56 | 16.0 | 18.0 | 0.00 | 0.00 | 0.00 | 65 | |
| 20260505184511 | 61 | 63 | 11.0 | 13.0 | 0.00 | 0.00 | 0.00 | 64 | |
| 20260505184011 | 61 | 66 | 7.0 | 9.0 | 0.00 | 0.00 | 0.00 | 64 | |
| 20260505183510 | 61 | 51 | 9.0 | 13.0 | 0.00 | 0.00 | 0.00 | 64 | |
| 20260505183011 | 61 | 42 | 7.0 | 11.0 | 0.00 | 0.00 | 0.00 | 64 | |
| 20260505182510 | 61 | 45 | 7.0 | 11.0 | 0.00 | 0.00 | 0.00 | 63 | |
| 20260505182013 | 61 | 41 | 7.0 | 9.0 | 0.00 | 0.00 | 0.00 | 63 | |
| 20260505181510 | 61 | 28 | 7.0 | 11.0 | 0.00 | 0.00 | 0.00 | 63 | |
| 20260505181010 | 61 | 13 | 13.0 | 16.0 | 0.00 | 0.00 | 0.00 | 63 | |
| 20260505180510 | 61 | 17 | 9.0 | 11.0 | 0.00 | 0.00 | 0.00 | 62 | |
| 20260505180011 | 61 | 21 | 11.0 | 16.0 | 0.00 | 0.00 | 0.00 | 62 | |
| 20260505175510 | 61 | 12 | 16.0 | 18.0 | 0.00 | 0.00 | 0.00 | 62 | |
| 20260505175010 | 61 | 9 | 16.0 | 18.0 | 0.00 | 0.00 | 0.00 | 62 | |
| 20260505174510 | 61 | 5 | 16.0 | 18.0 | 0.00 | 0.00 | 0.00 | 62 | |
| 20260505174009 | 61 | 358 | 13.0 | 18.0 | 0.00 | 0.00 | 0.00 | 62 | |
| 20260505173511 | 61 | 9 | 16.0 | 20.0 | 0.00 | 0.00 | 0.00 | 61 | |
| 20260505173015 | 63 | 2 | 16.0 | 20.0 | 0.00 | 0.00 | 0.00 | 61 | |
| 20260505172511 | 63 | 3 | 20.0 | 22.0 | 0.00 | 0.00 | 0.00 | 61 | |
| 20260505172012 | 63 | 358 | 16.0 | 22.0 | 0.00 | 0.00 | 0.00 | 61 | |
| 20260505171010 | 63 | 6 | 20.0 | 25.0 | 0.00 | 0.00 | 0.00 | 61 | |
| 20260505170510 | 63 | 8 | 20.0 | 25.0 | 0.00 | 0.00 | 0.00 | 61 | |
| 20260505170010 | 63 | 13 | 20.0 | 27.0 | 0.00 | 0.00 | 0.00 | 61 | |
| 20260505165511 | 63 | 7 | 16.0 | 18.0 | 0.00 | 0.00 | 0.00 | 61 | |
| 20260505165010 | 63 | 8 | 18.0 | 22.0 | 0.00 | 0.00 | 0.00 | 61 | |
| 20260505164511 | 63 | 8 | 20.0 | 25.0 | 0.00 | 0.00 | 0.00 | 61 | |
| 20260505164010 | 63 | 359 | 18.0 | 20.0 | 0.00 | 0.00 | 0.00 | 61 |